Location: Bletchingley
(51.2333°N, 0.1000°W)
Time: 22:09:17
(UTC+00:00)

Terra - Pass Details

Date: 18 September 2020
Orbit: 701 x 703 km, 98.2° (Epoch: 22 October)

Event Time Altitude Azimuth Distance (km) Brightness Sun altitude
Exits shadow 20:19:10 18° 56° (NE) 1,692 3.5 -20.5°
Drops below altitude 10° 20:22:19 10° 14° (NNE) 2,183 4.6 -20.9°
Sets 20:25:12 0° 356° (N) 3,106 5.7 -21.3°
